USA 130 (DSP 18)

Last updated on Aug. 15, 2020, 5:34 a.m. UTC

1 24737U 97008A   20227.23131466  .00000028  00000-0  00000+0 0  9995
2 24737  13.5962  19.2800 0001062 291.7365 103.0794  1.00270103 10226
UTC
Height (km)
Latitude
Longitude
Inclination
Orbital Period
UTC large
Height (km)
Speed (km/s)
/
Latitude / Longitude
Inclination (degrees)
Orbital Period (minutes)
Azimuth
Elevation
Range (km)
Doppler Factor
iOS Compass Heading
iOS Angle

Next 30 passes for location: Hong Kong

Rise time Rise Azimuth (degrees) Set time Set Azimuth (degrees) Duration Max altitude (degrees)

No matching passes for this satellites